PORT of AGIOS KONSTANTINOS

國家: Greece 國家: Greece [GR]
緯度/經度: 38.758095° / 22.866425° 顯示地圖
當地時間:  [UTC +3]
UN/LOCODE: GRAKO
目前在港船舶: 1
預期抵達: 6

最近抵達或離開


船名
抵達 (UTC)
抵達 (LT)
離開 (UTC)
離開 (LT)
Vessel Type: 漁船  AGIOS SPYRIDON 2014-08-28 07:38:00 2014-08-28 10:38:00
Vessel Type: 客輪  EXPRESS PEGASUS 2014-08-27 17:43:00 2014-08-27 20:43:00 2014-08-28 07:12:00 2014-08-28 10:12:00
Vessel Type: 漁船  DIMITRA V 2014-08-27 23:53:00 2014-08-28 02:53:00 2014-08-28 00:13:00 2014-08-28 03:13:00
Vessel Type: 漁船  DIMITRA V 2014-08-27 15:04:00 2014-08-27 18:04:00 2014-08-27 16:25:00 2014-08-27 19:25:00
Vessel Type: 高速船  FLYING DOLPHIN ERATO 2014-08-27 15:27:00 2014-08-27 18:27:00 2014-08-27 15:50:00 2014-08-27 18:50:00
Vessel Type: 客輪  OSIOS DAVID 2014-08-27 07:08:00 2014-08-27 10:08:00 2014-08-27 07:29:00 2014-08-27 10:29:00
Vessel Type: 客輪  EXPRESS PEGASUS 2014-08-26 18:16:00 2014-08-26 21:16:00 2014-08-27 07:16:00 2014-08-27 10:16:00
Vessel Type: 高速船  FLYINGCAT 6 2014-08-26 16:18:00 2014-08-26 19:18:00 2014-08-26 16:48:00 2014-08-26 19:48:00
Vessel Type: 客輪  OSIOS DAVID 2014-08-26 11:31:00 2014-08-26 14:31:00 2014-08-26 14:14:00 2014-08-26 17:14:00
Vessel Type: 客輪  EXPRESS PEGASUS 2014-08-25 18:21:00 2014-08-25 21:21:00 2014-08-26 07:12:00 2014-08-26 10:12:00

預期抵達


船名
Scheduled Arrival (UTC)
原定抵達時間(本地時間)
預計抵達時間 (UTC)
預計抵達時間(當地時間)
Vessel Type: 高速船  FLYING DOLPHIN ERATO 2014-08-27 14:55:00 2014-08-27 17:55:00 2014-08-27 15:16:00 2014-08-27 18:16:00
Vessel Type: 高速船  FLYING DOLPHIN ERATO 2014-08-27 14:55:00 2014-08-27 17:55:00 2014-08-27 15:16:00 2014-08-27 18:16:00
Vessel Type: 高速船  FLYING DOLPHIN ERATO 2014-08-27 14:55:00 2014-08-27 17:55:00 2014-08-27 15:16:00 2014-08-27 18:16:00
Vessel Type: 客輪  EXPRESS PEGASUS 2014-08-27 17:30:00 2014-08-27 20:30:00 2014-08-27 17:35:00 2014-08-27 20:35:00
Vessel Type: 客輪  EXPRESS PEGASUS 2014-08-27 17:30:00 2014-08-27 20:30:00 2014-08-27 17:35:00 2014-08-27 20:35:00
Vessel Type: 客輪  EXPRESS PEGASUS 2014-08-27 17:30:00 2014-08-27 20:30:00 2014-08-27 17:35:00 2014-08-27 20:35:00

Wind Forecast


    
時間(UTC)
船速
Direction
Temperature
2014-08-28 06:00:00 14 knots 340° 25°C
2014-08-28 09:00:00 14 knots 10° 27°C
2014-08-28 12:00:00 14 knots 40° 27°C
2014-08-28 15:00:00 12 knots 47° 26°C
2014-08-28 18:00:00 8 knots 38° 26°C
2014-08-28 21:00:00 12 knots 357° 26°C
2014-08-29 00:00:00 16 knots 15° 25°C
2014-08-29 03:00:00 17 knots 30° 24°C
2014-08-29 06:00:00 18 knots 36° 24°C
2014-08-29 09:00:00 19 knots 42° 23°C
2014-08-29 12:00:00 18 knots 43° 23°C
2014-08-29 15:00:00 14 knots 42° 24°C
2014-08-29 18:00:00 11 knots 29° 24°C
2014-08-29 21:00:00 11 knots 21° 24°C
2014-08-30 00:00:00 14 knots 31° 24°C
2014-08-30 06:00:00 19 knots 23° 23°C